Regional Weather Roundup
Issued by NWS Goodland, KS

Home | Current Version | Previous Version | Graphics & Text | Print | Product List | Glossary On
Versions: 1 2 3 4 5 6 7 8 9 10 11 12 13 14 15 16 17 18 19 20 21 22 23 24 25 26 27 28 29 30 31 32 33 34 35 36 37 38 39 40 41 42 43 44 45 46 47 48 49 50
000
ASUS43 KGLD 222208
RWRGLD

GOODLAND FORECAST AREA HOURLY WEATHER ROUNDUP
NATIONAL WEATHER SERVICE GOODLAND KS
400 PM MDT MON SEP 22 2014

...OFFICIAL OBSERVATIONS...

CITY           SKY/WX    TMP DP  RH WIND       PRES   REMARKS
GOODLAND KS    CLOUDY    75  51  43 S18G28    30.13F
HILL CITY KS   MOSUNNY   78  44  29 S16G23    30.15F
IMPERIAL NEB   CLOUDY    72  51  47 S21       30.09F
MCCOOK NEB     CLOUDY    77  46  33 S16G28    30.11F
AKRON CO       PTSUNNY   77  55  46 S8        30.08F
BURLINGTON CO  CLOUDY    73  52  47 S20G30    30.12F
LIMON CO       MOSUNNY   76  49  38 S16       30.12F
$$

...UNOFFICIAL OBSERVATIONS...

CITY           SKY/WX    TMP DP  RH WIND       PRES   REMARKS
COLBY KS       SUNNY     75  50  41 SE20G28   30.14F
GOVE KS          N/A     77  32  19 MISG        N/A
NORTON KS      SUNNY     79  37  22 SE16      30.14S
SHARON SPRINGS   N/A     76  53  44 S20G31      N/A
WAKEENEY KS      N/A     77  40  25 MISG        N/A
TRENTON NEB      N/A     75  32  20 S17         N/A
YUMA CO          N/A     76  55  47 S13G25      N/A
$$



USA.gov is the U.S. government's official web portal to all federal, state and local government web resources and services.